Time,TemperatureF,DewpointF,PressureIn,WindDirection,WindDirectionDegrees,WindSpeedMPH,WindSpeedGustMPH,Humidity,HourlyPrecipIn,Conditions,Clouds,dailyrainin,SoftwareType,DateUTC
2013-04-07 00:05:00,60.8,60.2,29.63,SSW,202,17.1,-999.0,98,-99.99,,,0.00,Acu-Link.com,2013-04-07 05:05:00,
2013-04-07 00:35:00,61.2,60.6,29.64,SW,225,8.3,-999.0,98,-99.99,,,0.01,Acu-Link.com,2013-04-07 05:35:00,
2013-04-07 01:05:00,60.3,59.7,29.65,SSW,202,8.9,-999.0,98,-99.99,,,0.01,Acu-Link.com,2013-04-07 06:05:00,
2013-04-07 01:20:00,59.0,58.4,29.66,West,270,6.8,-999.0,98,-99.99,,,0.01,Acu-Link.com,2013-04-07 06:20:00,
2013-04-07 01:35:00,58.8,58.2,29.67,SW,225,10.4,-999.0,98,-99.99,,,0.01,Acu-Link.com,2013-04-07 06:35:00,
2013-04-07 01:50:00,59.0,58.4,29.66,NW,315,8.9,-999.0,98,-99.99,,,0.01,Acu-Link.com,2013-04-07 06:50:00,
2013-04-07 02:06:00,58.3,57.7,29.67,West,270,11.4,-999.0,98,-99.99,,,0.01,Acu-Link.com,2013-04-07 07:06:00,
2013-04-07 02:21:00,57.7,57.1,29.68,SW,225,9.9,-999.0,98,-99.99,,,0.01,Acu-Link.com,2013-04-07 07:21:00,
2013-04-07 03:07:00,55.4,54.8,29.69,West,270,8.3,-999.0,98,-99.99,,,0.01,Acu-Link.com,2013-04-07 08:07:00,
2013-04-07 03:22:00,55.0,54.4,29.69,West,270,8.3,-999.0,98,-99.99,,,0.01,Acu-Link.com,2013-04-07 08:22:00,
2013-04-07 03:37:00,54.3,53.7,29.70,West,270,9.9,-999.0,98,-99.99,,,0.01,Acu-Link.com,2013-04-07 08:37:00,
2013-04-07 04:08:00,53.6,53.0,29.71,West,270,7.8,-999.0,98,-99.99,,,0.01,Acu-Link.com,2013-04-07 09:08:00,
2013-04-07 04:38:00,53.1,52.5,29.72,SW,225,4.2,-999.0,98,-99.99,,,0.01,Acu-Link.com,2013-04-07 09:38:00,
2013-04-07 04:53:00,52.0,51.5,29.72,West,270,5.8,-999.0,98,-99.99,,,0.01,Acu-Link.com,2013-04-07 09:53:00,
2013-04-07 05:08:00,51.8,51.3,29.73,West,270,6.3,-999.0,98,-99.99,,,0.01,Acu-Link.com,2013-04-07 10:08:00,
2013-04-07 06:09:00,52.5,52.0,29.75,WNW,292,5.8,-999.0,98,-99.99,,,0.01,Acu-Link.com,2013-04-07 11:09:00,
2013-04-07 06:24:00,51.8,51.3,29.76,WNW,292,5.8,-999.0,98,-99.99,,,0.01,Acu-Link.com,2013-04-07 11:24:00,
2013-04-07 06:39:00,52.2,51.7,29.76,West,270,6.8,-999.0,98,-99.99,,,0.01,Acu-Link.com,2013-04-07 11:39:00,
2013-04-07 06:54:00,51.3,50.8,29.78,West,270,3.7,-999.0,98,-99.99,,,0.01,Acu-Link.com,2013-04-07 11:54:00,
2013-04-07 07:10:00,51.1,50.6,29.79,NW,315,3.7,-999.0,98,-99.99,,,0.01,Acu-Link.com,2013-04-07 12:10:00,
2013-04-07 07:25:00,50.4,49.9,29.79,WNW,292,8.3,-999.0,98,-99.99,,,0.01,Acu-Link.com,2013-04-07 12:25:00,
2013-04-07 07:40:00,50.0,49.5,29.80,West,270,7.8,-999.0,98,-99.99,,,0.01,Acu-Link.com,2013-04-07 12:40:00,
2013-04-07 07:55:00,51.3,50.8,29.81,WNW,292,9.4,-999.0,98,-99.99,,,0.01,Acu-Link.com,2013-04-07 12:55:00,
2013-04-07 08:10:00,52.2,51.7,29.81,WNW,292,8.9,-999.0,98,-99.99,,,0.01,Acu-Link.com,2013-04-07 13:10:00,
2013-04-07 08:25:00,53.2,52.6,29.81,WNW,292,10.4,-999.0,98,-99.99,,,0.01,Acu-Link.com,2013-04-07 13:25:00,
2013-04-07 08:40:00,53.8,53.2,29.81,WNW,292,9.9,-999.0,98,-99.99,,,0.01,Acu-Link.com,2013-04-07 13:40:00,
2013-04-07 08:55:00,54.9,54.3,29.82,NW,315,8.9,-999.0,98,-99.99,,,0.01,Acu-Link.com,2013-04-07 13:55:00,
2013-04-07 09:10:00,55.9,55.3,29.82,NW,315,9.9,-999.0,98,-99.99,,,0.01,Acu-Link.com,2013-04-07 14:10:00,
2013-04-07 09:26:00,56.8,56.2,29.82,NW,315,7.3,-999.0,98,-99.99,,,0.01,Acu-Link.com,2013-04-07 14:26:00,
2013-04-07 09:56:00,59.4,58.8,29.83,NW,315,4.7,-999.0,98,-99.99,,,0.01,Acu-Link.com,2013-04-07 14:56:00,
2013-04-07 10:26:00,62.8,62.2,29.84,NW,315,8.9,-999.0,98,-99.99,,,0.01,Acu-Link.com,2013-04-07 15:26:00,
2013-04-07 11:11:00,65.1,64.5,29.85,West,270,5.8,-999.0,98,-99.99,,,0.01,Acu-Link.com,2013-04-07 16:11:00,
2013-04-07 11:27:00,64.9,64.3,29.85,NNW,337,5.3,-999.0,98,-99.99,,,0.01,Acu-Link.com,2013-04-07 16:27:00,
2013-04-07 11:42:00,66.9,66.3,29.85,West,270,9.4,-999.0,98,-99.99,,,0.01,Acu-Link.com,2013-04-07 16:42:00,
2013-04-07 11:57:00,66.0,65.4,29.85,NNW,337,5.3,-999.0,98,-99.99,,,0.01,Acu-Link.com,2013-04-07 16:57:00,
2013-04-07 12:12:00,67.1,66.5,29.84,NW,315,8.9,-999.0,98,-99.99,,,0.01,Acu-Link.com,2013-04-07 17:12:00,
2013-04-07 12:27:00,68.0,67.4,29.84,West,270,5.3,-999.0,98,-99.99,,,0.01,Acu-Link.com,2013-04-07 17:27:00,
2013-04-07 12:42:00,67.5,66.9,29.84,NW,315,4.7,-999.0,98,-99.99,,,0.01,Acu-Link.com,2013-04-07 17:42:00,
2013-04-07 12:57:00,69.8,69.2,29.83,WNW,292,13.5,-999.0,98,-99.99,,,0.01,Acu-Link.com,2013-04-07 17:57:00,
2013-04-07 13:12:00,68.5,67.9,29.83,WNW,292,7.3,-999.0,98,-99.99,,,0.01,Acu-Link.com,2013-04-07 18:12:00,
2013-04-07 13:27:00,69.6,69.0,29.83,WNW,292,8.3,-999.0,98,-99.99,,,0.01,Acu-Link.com,2013-04-07 18:27:00,
2013-04-07 13:43:00,70.2,69.6,29.83,WNW,292,5.8,-999.0,98,-99.99,,,0.01,Acu-Link.com,2013-04-07 18:43:00,
2013-04-07 13:58:00,71.8,71.2,29.83,West,270,7.8,-999.0,98,-99.99,,,0.01,Acu-Link.com,2013-04-07 18:58:00,
2013-04-07 14:13:00,72.3,71.7,29.83,West,270,10.4,-999.0,98,-99.99,,,0.01,Acu-Link.com,2013-04-07 19:13:00,
2013-04-07 14:43:00,72.7,72.1,29.82,West,270,8.3,-999.0,98,-99.99,,,0.01,Acu-Link.com,2013-04-07 19:43:00,
2013-04-07 14:58:00,73.4,72.8,29.82,West,270,5.8,-999.0,98,-99.99,,,0.01,Acu-Link.com,2013-04-07 19:58:00,
2013-04-07 15:13:00,72.0,71.4,29.81,West,270,6.8,-999.0,98,-99.99,,,0.01,Acu-Link.com,2013-04-07 20:13:00,
2013-04-07 15:43:00,72.7,72.1,29.80,NW,315,4.7,-999.0,98,-99.99,,,0.01,Acu-Link.com,2013-04-07 20:43:00,
2013-04-07 15:59:00,72.0,71.4,29.80,SW,225,0.0,-999.0,98,-99.99,,,0.01,Acu-Link.com,2013-04-07 20:59:00,
2013-04-07 16:59:00,73.6,73.0,29.79,West,270,5.3,-999.0,98,-99.99,,,0.01,Acu-Link.com,2013-04-07 21:59:00,
2013-04-07 17:14:00,71.8,71.2,29.79,West,270,3.7,-999.0,98,-99.99,,,0.01,Acu-Link.com,2013-04-07 22:14:00,
2013-04-07 17:44:00,72.0,71.4,29.79,West,270,0.0,-999.0,98,-99.99,,,0.01,Acu-Link.com,2013-04-07 22:44:00,
2013-04-07 17:59:00,72.5,71.9,29.78,ESE,112,0.0,-999.0,98,-99.99,,,0.01,Acu-Link.com,2013-04-07 22:59:00,
2013-04-07 18:15:00,71.8,71.2,29.78,SSE,157,0.0,-999.0,98,-99.99,,,0.01,Acu-Link.com,2013-04-07 23:15:00,
2013-04-07 18:30:00,72.0,71.4,29.77,East,90,0.0,-999.0,98,-99.99,,,0.01,Acu-Link.com,2013-04-07 23:30:00,
2013-04-07 18:45:00,71.2,70.6,29.77,East,90,0.0,-999.0,98,-99.99,,,0.01,Acu-Link.com,2013-04-07 23:45:00,
2013-04-07 19:00:00,69.6,69.0,29.77,ESE,112,0.0,-999.0,98,-99.99,,,0.01,Acu-Link.com,2013-04-08 00:00:00,
2013-04-07 19:15:00,67.6,67.0,29.77,ESE,112,1.7,-999.0,98,-99.99,,,0.01,Acu-Link.com,2013-04-08 00:15:00,
2013-04-07 19:30:00,65.5,64.9,29.77,East,90,0.0,-999.0,98,-99.99,,,0.01,Acu-Link.com,2013-04-08 00:30:00,
2013-04-07 19:45:00,63.1,62.5,29.78,ESE,112,0.0,-999.0,98,-99.99,,,0.01,Acu-Link.com,2013-04-08 00:45:00,
2013-04-07 20:00:00,61.9,61.3,29.77,ESE,112,3.7,-999.0,98,-99.99,,,0.01,Acu-Link.com,2013-04-08 01:00:00,
2013-04-07 20:15:00,61.0,60.4,29.77,SE,135,4.2,-999.0,98,-99.99,,,0.01,Acu-Link.com,2013-04-08 01:15:00,
2013-04-07 20:31:00,60.6,60.0,29.78,SE,135,2.7,-999.0,98,-99.99,,,0.01,Acu-Link.com,2013-04-08 01:31:00,
2013-04-07 20:46:00,60.4,59.8,29.77,ESE,112,4.7,-999.0,98,-99.99,,,0.01,Acu-Link.com,2013-04-08 01:46:00,
2013-04-07 21:31:00,58.5,57.9,29.79,SE,135,2.7,-999.0,98,-99.99,,,0.01,Acu-Link.com,2013-04-08 02:31:00,
2013-04-07 22:16:00,57.2,56.6,29.79,ESE,112,0.0,-999.0,98,-99.99,,,0.01,Acu-Link.com,2013-04-08 03:16:00,
2013-04-07 22:31:00,57.9,57.3,29.79,SE,135,2.7,-999.0,98,-99.99,,,0.01,Acu-Link.com,2013-04-08 03:31:00,
2013-04-07 22:47:00,57.0,56.4,29.79,East,90,1.1,-999.0,98,-99.99,,,0.01,Acu-Link.com,2013-04-08 03:47:00,
2013-04-07 23:02:00,57.2,56.6,29.79,SSE,157,3.7,-999.0,98,-99.99,,,0.01,Acu-Link.com,2013-04-08 04:02:00,
2013-04-07 23:17:00,56.5,55.9,29.78,SE,135,4.2,-999.0,98,-99.99,,,0.01,Acu-Link.com,2013-04-08 04:17:00,
2013-04-07 23:32:00,56.7,56.1,29.78,SSE,157,4.7,-999.0,98,-99.99,,,0.01,Acu-Link.com,2013-04-08 04:32:00,
2013-04-07 23:47:00,56.5,55.9,29.78,SSE,157,3.2,-999.0,98,-99.99,,,0.01,Acu-Link.com,2013-04-08 04:47:00,